FW3806 Weather Reports


Display with metric or nautical units.
time (UTC)temp
F
wind
direction
speed
MPH
gust
MPH
rain 1hr
in
rain 24hr
in
rain mn
in
humidity
%
barometer
mb
20260505181554 67 198 1.0 11.0 0.00 0.00 0.00 30 1008.8
20260505180043 68 125 1.0 7.0 0.00 0.00 0.00 30 1008.8
20260505174541 65 121 3.0 11.0 0.00 0.00 0.00 34 1008.9
20260505173040 65 132 1.0 10.0 0.00 0.00 0.00 34 1009.0
20260505171537 65 117 3.0 8.0 0.00 0.00 0.00 34 1009.0
20260505170037 65 127 0.0 7.0 0.00 0.00 0.00 35 1009.0
20260505164534 63 131 2.0 9.0 0.00 0.00 0.00 37 1009.1
20260505163033 62 127 4.0 10.0 0.00 0.00 0.00 39 1009.1
20260505161541 62 123 1.0 8.0 0.00 0.00 0.00 39 1009.1
20260505153031 60 113 0.0 6.0 0.00 0.00 0.00 42 1009.1
20260505151529 60 131 1.0 8.0 0.00 0.00 0.00 42 1009.1
20260505124517 56 67 3.0 8.0 0.00 0.00 0.00 47 1007.9
20260505123014 56 75 4.0 9.0 0.00 0.00 0.00 47 1007.9
20260505121527 56 77 4.0 9.0 0.00 0.00 0.00 46 1007.8
20260505120011 56 66 5.0 9.0 0.00 0.00 0.00 46 1007.8
20260505114509 56 70 4.0 8.0 0.00 0.00 0.00 46 1007.8
20260505113007 57 68 3.0 7.0 0.00 0.00 0.00 45 1007.7
20260505111504 57 103 4.0 9.0 0.00 0.00 0.00 44 1007.6
20260505101553 58 64 3.0 9.0 0.00 0.00 0.00 42 1007.4
20260505100049 58 82 5.0 10.0 0.00 0.00 0.00 41 1007.1
20260505094552 59 108 4.0 8.0 0.00 0.00 0.00 40 1007.3
20260505093053 59 70 6.0 11.0 0.00 0.00 0.00 40 1007.3
20260505091543 59 84 3.0 6.0 0.00 0.00 0.00 39 1007.2
20260505090045 60 84 4.0 8.0 0.00 0.00 0.00 38 1007.2
20260505084549 61 84 0.0 9.0 0.00 0.00 0.00 36 1007.3
20260505083048 61 112 7.0 14.0 0.00 0.00 0.00 36 1007.0
20260505081533 61 104 4.0 8.0 0.00 0.00 0.00 36 1007.0
20260505080041 61 110 3.0 8.0 0.00 0.00 0.00 35 1007.1
20260505074528 62 101 6.0 10.0 0.00 0.00 0.00 35 1007.1
20260505073033 62 103 4.0 8.0 0.00 0.00 0.00 33 1007.1
20260505071522 63 111 5.0 10.0 0.00 0.00 0.00 32 1006.9
20260505070019 63 151 5.0 11.0 0.00 0.00 0.00 32 1006.9
20260505064520 64 120 5.0 10.0 0.00 0.00 0.00 31 1006.9
20260505063018 64 169 6.0 11.0 0.00 0.00 0.00 31 1006.7
20260505061615 64 139 4.0 12.0 0.00 0.00 0.00 30 1006.8
20260505060014 65 158 5.0 8.0 0.00 0.00 0.00 29 1006.6
20260505054515 65 124 0.0 9.0 0.00 0.00 0.00 28 1006.5
20260505053014 66 161 4.0 11.0 0.00 0.00 0.00 27 1006.6
20260505051513 66 195 5.0 10.0 0.00 0.00 0.00 28 1006.5
20260505041510 67 143 6.0 18.0 0.00 0.00 0.00 25 1005.8
20260505040010 68 162 8.0 18.0 0.00 0.00 0.00 23 1005.6
20260505034510 68 126 7.0 14.0 0.00 0.00 0.00 22 1005.2
20260505033009 69 159 9.0 17.0 0.00 0.00 0.00 21 1005.0
20260505031507 69 121 8.0 17.0 0.00 0.00 0.00 20 1004.8
20260505030008 69 132 6.0 16.0 0.00 0.00 0.00 19 1004.5
20260505024506 70 214 13.0 20.0 0.00 0.00 0.00 19 1004.3
20260505023007 70 205 8.0 16.0 0.00 0.00 0.00 18 1004.2
20260505021502 71 196 7.0 16.0 0.00 0.00 0.00 17 1004.3
20260505020104 72 171 8.0 17.0 0.00 0.00 0.00 17 1004.1
20260505014607 73 165 2.0 14.0 0.00 0.00 0.00 17 1004.1
20260505013100 74 198 8.0 17.0 0.00 0.00 0.00 17 1004.0
20260505011600 74 205 7.0 20.0 0.00 0.00 0.00 18 1003.9
20260505010058 74 178 9.0 16.0 0.00 0.00 0.00 17 1004.1
20260505004558 75 150 8.0 16.0 0.00 0.00 0.00 16 1004.1
20260505003057 76 188 9.0 18.0 0.00 0.00 0.00 17 1004.2
20260505001556 76 145 6.0 16.0 0.00 0.00 0.00 18 1004.2
20260505000058 76 136 4.0 20.0 0.00 0.00 0.00 19 1004.3
20260504234555 76 197 7.0 16.0 0.00 0.00 0.00 18 1004.4
20260504233054 75 160 7.0 17.0 0.00 0.00 0.00 17 1004.3
20260504231556 75 203 11.0 19.0 0.00 0.00 0.00 16 1004.3
20260504230052 75 136 11.0 19.0 0.00 0.00 0.00 17 1004.4
20260504224551 76 203 16.0 23.0 0.00 0.00 0.00 15 1004.5
20260504223051 76 132 10.0 22.0 0.00 0.00 0.00 14 1004.6
20260504221548 76 176 11.0 22.0 0.00 0.00 0.00 12 1004.6
20260504220048 77 162 7.0 14.0 0.00 0.00 0.00 11 1004.7
20260504214554 77 125 8.0 15.0 0.00 0.00 0.00 13 1005.0
20260504213046 76 117 10.0 22.0 0.00 0.00 0.00 16 1005.1
20260504211543 76 139 12.0 22.0 0.00 0.00 0.00 15 1005.2
20260504210054 76 130 12.0 20.0 0.00 0.00 0.00 14 1005.2
20260504204556 75 119 10.0 18.0 0.00 0.00 0.00 15 1005.4
20260504203041 74 99 11.0 21.0 0.00 0.00 0.00 17 1005.4
20260504201535 74 129 12.0 19.0 0.00 0.00 0.00 18 1005.6
20260504200034 73 117 13.0 19.0 0.00 0.00 0.00 20 1005.7
20260504194533 73 114 11.0 17.0 0.00 0.00 0.00 19 1005.8
20260504193032 72 148 10.0 20.0 0.00 0.00 0.00 17 1006.1
20260504191531 72 162 11.0 21.0 0.00 0.00 0.00 22 1006.3
20260504190026 71 123 8.0 19.0 0.00 0.00 0.00 22 1006.4
20260504184526 71 141 8.0 17.0 0.00 0.00 0.00 25 1006.5
20260504183024 70 104 11.0 18.0 0.00 0.00 0.00 26 1006.6